INTELSAT 26 (IS-26) 1 24732U 97007A 21017.09381314 -.00000001 00000-0 00000+0 0 9992 2 24732 9.3390 41.7401 0003693 296.7032 235.6787 1.00271977 87457 GALAXY 25 (G-25) 1 24812U 97026A 21017.11294264 .00000150 00000-0 00000+0 0 9996 2 24812 2.4324 88.6100 0002912 195.3159 266.3094 1.00271398 86548 INTELSAT 5 (IS-5) 1 24916U 97046A 21017.20188309 .00000084 00000-0 00000+0 0 9991 2 24916 6.1463 64.3577 0003332 215.6292 132.5195 1.00271237 85792 GALAXY 11 (G-11) 1 26038U 99071A 21016.62549542 -.00000167 00000-0 00000-0 0 9997 2 26038 1.7342 94.7843 0000460 304.5783 208.9656 1.00271632 77252 INTELSAT 9 (IS-9) 1 26451U 00043A 21016.57562118 -.00000294 00000-0 00000-0 0 9996 2 26451 6.1340 64.5591 0002500 227.1325 341.7412 1.00270835 24311 INTELSAT 12 (IS-12) 1 26590U 00068A 21017.11922363 .00000008 00000-0 00000+0 0 9991 2 26590 3.4344 84.3818 0003047 216.8594 282.6440 1.00273107 73976 INTELSAT 1R (IS-1R) 1 26608U 00072A 21016.77891574 -.00000144 00000-0 00000-0 0 9999 2 26608 3.1891 84.4478 0000318 161.6416 307.8263 1.00271773 21491 INTELSAT 10 (IS-10) 1 26766U 01019A 21016.81924089 .00000117 00000-0 00000-0 0 9998 2 26766 4.3770 77.4937 0003073 211.1495 170.2251 1.00274137 25799 INTELSAT 901 (IS-901) 1 26824U 01024A 21016.95740074 -.00000206 00000-0 00000+0 0 9993 2 26824 0.0553 255.7330 0000830 53.3388 124.6794 1.00271785 71768 INTELSAT 902 (IS-902) 1 26900U 01039A 21016.73756584 -.00000287 00000-0 00000-0 0 9993 2 26900 1.1305 94.5697 0003350 218.9219 18.3001 1.00269540 70885 INTELSAT 904 (IS-904) 1 27380U 02007A 21016.74166594 -.00000219 00000-0 00000-0 0 9994 2 27380 1.9690 91.2701 0003291 216.8050 45.7715 1.00270826 31935 DIRECTV 5 (TEMPO 1) 1 27426U 02023A 21017.08450368 -.00000059 00000-0 00000+0 0 9997 2 27426 0.0183 56.3867 0003105 246.7263 93.8885 1.00272167 68471 INTELSAT 905 (IS-905) 1 27438U 02027A 21016.81442083 -.00000189 00000-0 00000-0 0 9994 2 27438 1.7902 92.1097 0002527 208.3424 84.6848 1.00271573 31538 GALAXY 3C (G-3C) 1 27445U 02030A 21015.22132785 -.00000157 00000-0 00000+0 0 9999 2 27445 0.0184 329.8045 0001662 357.7168 131.9657 1.00269928 68115 INTELSAT 906 (IS-906) 1 27513U 02041A 21016.81368910 .00000010 00000-0 00000-0 0 9992 2 27513 0.7956 96.6909 0003159 204.2962 172.5204 1.00271468 67204 GALAXY 12 (G-12) 1 27715U 03013B 21017.20188309 .00000054 00000-0 00000+0 0 9999 2 27715 2.0057 90.6921 0001746 216.8779 112.9182 1.00272230 65184 GALAXY 23 (G-23) 1 27854U 03034A 21016.72343361 .00000009 00000-0 00000-0 0 9994 2 27854 0.0249 265.4008 0003026 37.7537 312.6466 1.00272385 63916 GALAXY 13 (HORIZONS 1) 1 27954U 03044A 21017.20153587 .00000045 00000-0 00000+0 0 9998 2 27954 0.0038 346.6930 0003318 204.8112 230.8584 1.00269192 63339 DIRECTV 7S 1 28238U 04016A 21014.64255662 -.00000041 00000-0 00000+0 0 9993 2 28238 0.0424 84.2633 0002127 249.7280 253.7068 1.00464380 61201 INTELSAT 10-02 1 28358U 04022A 21017.10622545 -.00000014 00000-0 00000+0 0 9995 2 28358 0.0674 264.1169 0002482 43.9676 205.8989 1.00272537 60807 XM-3 (RHYTHM) 1 28626U 05008A 21017.14979958 -.00000209 00000-0 00000+0 0 9991 2 28626 0.0191 54.8123 0000321 359.1182 31.6840 1.00272582 58243 DIRECTV 8 1 28659U 05019A 21017.06340506 -.00000002 00000-0 00000+0 0 9992 2 28659 0.0461 258.3063 0002725 41.0752 81.0564 1.00272249 57367 GALAXY 28 (G-28) 1 28702U 05022A 21016.58621125 -.00000190 00000-0 00000-0 0 9999 2 28702 0.0152 43.9906 0001904 272.4057 281.8663 1.00271974 32203 GALAXY 14 (G-14) 1 28790U 05030A 21017.08153765 .00000033 00000-0 00000+0 0 9995 2 28790 0.0203 63.1273 0000153 131.0113 186.8873 1.00273023 56486 GALAXY 15 (G-15) 1 28884U 05041A 21017.07988017 .00000076 00000-0 00000+0 0 9993 2 28884 0.0032 343.0868 0001756 313.1860 76.1809 1.00271151 55807 SPACEWAY 2 1 28903U 05046B 21016.68559917 .00000099 00000-0 00000-0 0 9995 2 28903 0.6932 92.9593 0000192 312.8342 178.4318 1.00271489 31510 GALAXY 16 (G-16) 1 29236U 06023A 21016.67751108 -.00000131 00000-0 00000-0 0 9994 2 29236 0.0178 59.7839 0002539 243.9031 317.5097 1.00271509 53300 DIRECTV 9S 1 29494U 06043A 21016.67656795 -.00000117 00000-0 00000-0 0 9992 2 29494 0.0218 132.6099 0002783 164.6261 321.4139 1.00271760 31569 XM-4 (BLUES) 1 29520U 06049A 21016.53464141 -.00000027 00000-0 00000-0 0 9995 2 29520 0.0133 101.3210 0000319 305.2265 146.7863 1.00271878 31644 GALAXY 17 (G-17) 1 31307U 07016B 21016.58577507 -.00000179 00000-0 00000-0 0 9990 2 31307 0.0099 37.8641 0003163 271.3841 286.8387 1.00272844 50108 DIRECTV 10 1 31862U 07032A 21016.67562503 -.00000107 00000-0 00000-0 0 9995 2 31862 0.0117 103.0470 0000046 70.0249 83.6419 1.00270016 25788 SPACEWAY 3 1 32018U 07036A 21016.58507719 -.00000156 00000-0 00000-0 0 9995 2 32018 0.0188 172.3251 0000156 190.1109 229.4502 1.00273346 26724 INTELSAT 11 (IS-11) 1 32253U 07044B 21017.09785080 -.00000272 00000-0 00000+0 0 9999 2 32253 0.0174 84.6977 0001594 218.2648 165.9995 1.00271436 48707 HORIZONS 2 1 32388U 07063B 21016.81801594 -.00000187 00000-0 00000-0 0 9993 2 32388 0.0155 74.5524 0002580 221.0553 200.1668 1.00273230 48011 DIRECTV 11 1 32729U 08013A 21016.65600012 -.00000130 00000-0 00000-0 0 9990 2 32729 0.0216 171.3763 0000279 185.1762 256.6986 1.00271622 25763 GALAXY 18 (G-18) 1 32951U 08024A 21016.72299742 .00000021 00000-0 00000-0 0 9999 2 32951 0.0162 86.2032 0002757 214.1373 313.2618 1.00272461 26054 INTELSAT 25 (IS-25) 1 33153U 08034A 21017.17271814 -.00000227 00000-0 00000+0 0 9993 2 33153 0.0342 248.4775 0003001 45.3842 213.5900 1.00272856 45812 GALAXY 19 (G-19) 1 33376U 08045A 21016.67938581 -.00000143 00000-0 00000-0 0 9995 2 33376 0.0202 35.6951 0002887 271.0242 317.1936 1.00270100 45112 FM-5 1 35493U 09034A 21016.58682191 -.00000204 00000-0 00000-0 0 9997 2 35493 0.0171 337.2562 0000202 131.6342 132.4265 1.00271454 26822 INTELSAT 14 (IS-14) 1 36097U 09064A 21016.73852545 -.00000278 00000-0 00000-0 0 9991 2 36097 0.0131 87.3815 0002160 213.2675 36.5942 1.00272049 40850 INTELSAT 15 (IS-15) 1 36106U 09067A 21016.81801601 -.00000190 00000-0 00000-0 0 9994 2 36106 0.0175 32.5169 0002033 268.4690 195.0756 1.00272858 21470 DIRECTV 12 1 36131U 09075A 21016.67562470 -.00000107 00000-0 00000-0 0 9991 2 36131 0.0553 216.8754 0000158 124.0978 275.8173 1.00270882 26747 INTELSAT 16 (IS-16) 1 36397U 10006A 21017.14979958 -.00000247 00000-0 00000+0 0 9991 2 36397 0.0187 50.4693 0001823 247.5299 156.5060 1.00266337 39918 XM-5 1 37185U 10053A 21016.58699639 -.00000209 00000-0 00000-0 0 9990 2 37185 0.0177 116.5291 0001326 305.9240 179.8581 1.00270421 37658 INTELSAT 17 (IS-17) 1 37238U 10065B 21016.81368910 -.00000006 00000-0 00000-0 0 9998 2 37238 0.0016 179.7151 0002959 129.8605 165.7947 1.00271418 33570 INTELSAT NEW DAWN 1 37392U 11016A 21017.08521519 .00000152 00000-0 00000+0 0 9992 2 37392 0.0117 208.8365 0000687 2.6264 328.6837 1.00271541 35699 INTELSAT 18 (IS-18) 1 37834U 11056A 21016.78345203 .00000049 00000-0 00000-0 0 9993 2 37834 0.0142 30.2830 0001552 269.9948 278.1703 1.00272921 34087 INTELSAT 22 (IS-22) 1 38098U 12011A 21016.76438354 -.00000063 00000-0 00000-0 0 9993 2 38098 0.0184 66.7650 0002753 226.9426 169.9770 1.00271769 31995 INTELSAT 19 (IS-19) 1 38356U 12030A 21016.78066046 -.00000061 00000-0 00000-0 0 9996 2 38356 0.0210 36.2394 0002742 269.0239 258.1946 1.00270307 30630 INTELSAT 20 (IS-20) 1 38740U 12043A 21016.81368910 -.00000029 00000-0 00000-0 0 9990 2 38740 0.0044 44.3898 0002127 137.7283 295.7479 1.00272000 30920 INTELSAT 21 (IS-21) 1 38749U 12045A 21016.73599560 -.00000289 00000-0 00000-0 0 9997 2 38749 0.0123 81.3851 0001870 218.7295 23.2076 1.00272557 30715 INTELSAT 23 (IS-23) 1 38867U 12057A 21017.15461899 -.00000288 00000-0 00000+0 0 9999 2 38867 0.0221 103.7026 0001752 187.3279 188.4149 1.00272581 30284 FM-6 1 39360U 13058A 21016.72430597 -.00000021 00000-0 00000-0 0 9999 2 39360 0.0057 3.8972 0000948 154.9909 102.0671 1.00271542 26234 INTELSAT 30 (IS-30) 1 40271U 14062A 21016.44143611 -.00000155 00000-0 00000-0 0 9993 2 40271 0.0212 57.7252 0002326 62.3107 59.9172 1.00268368 22765 DIRECTV 14 1 40333U 14078B 21016.67751109 -.00000129 00000-0 00000-0 0 9992 2 40333 0.0231 118.6179 0000205 279.0898 223.2531 1.00271350 22229 DIRECTV 15 1 40663U 15026A 21016.62627562 -.00000107 00000-0 00000-0 0 9998 2 40663 0.0168 83.3684 0000878 91.3919 64.0868 1.00271210 20630 SKY MEXICO-1 1 40664U 15026B 21017.12516715 -.00000238 00000-0 00000+0 0 9996 2 40664 0.0205 55.3403 0002214 254.5345 133.1799 1.00269484 20713 INTELSAT 34 (IS-34) 1 40874U 15039A 21017.19838946 -.00000289 00000-0 00000+0 0 9999 2 40874 0.0187 51.4417 0000577 137.6868 303.6150 1.00271997 19791 INTELSAT 31 (IS-31) 1 41581U 16035A 21015.00594201 -.00000157 00000-0 00000-0 0 9998 2 41581 0.0130 79.5109 0002221 120.4188 181.8211 1.00268016 16752 INTELSAT 36 (IS-36) 1 41747U 16053A 21016.68941153 -.00000029 00000-0 00000-0 0 9997 2 41747 0.0103 34.7063 0001579 340.7835 57.4982 1.00271370 16131 INTELSAT 33E (IS-33E) 1 41748U 16053B 21016.81368910 .00000045 00000-0 00000-0 0 9994 2 41748 0.0174 41.6423 0001772 253.0459 174.6796 1.00273011 16421 INTELSAT 32E (IS-32E) 1 41945U 17007B 21017.18875747 -.00000272 00000-0 00000+0 0 9997 2 41945 0.0191 55.1748 0000470 131.4039 315.0055 1.00273157 14424 INTELSAT 35E (IS-35E) 1 42818U 17041A 21016.81241441 -.00000242 00000-0 00000-0 0 9990 2 42818 0.0282 142.2298 0001603 148.1214 84.0698 1.00272418 13044 INTELSAT 37E (IS-37E) 1 42950U 17059A 21016.79967037 -.00000145 00000-0 00000-0 0 9991 2 42950 0.0155 80.2091 0002397 211.9673 94.1263 1.00272747 12225 AZERSPACE 2 (IS-38) 1 43632U 18074A 21017.07410383 .00000133 00000-0 00000+0 0 9991 2 43632 0.0207 40.3908 0001181 250.3739 257.7460 1.00268842 8654 HORIZONS 3E 1 43633U 18074B 21016.78127112 -.00000036 00000-0 00000-0 0 9998 2 43633 0.0132 240.7183 0000704 54.1330 271.7799 1.00267815 8515 AT&T T-16 1 44333U 19034A 21016.67656729 -.00000119 00000-0 00000-0 0 9994 2 44333 0.0308 283.7353 0001338 253.2967 81.9777 1.00272026 5813 INTELSAT 39 (IS-39) 1 44476U 19049B 21017.09381314 .00000030 00000-0 00000+0 0 9990 2 44476 0.0197 59.9131 0001433 94.7841 57.7577 1.00269527 5326 GALAXY 30 1 46114U 20056C 21016.31963032 -.00000051 00000-0 00000-0 0 9993 2 46114 0.0421 258.4341 0001252 97.7631 105.9431 1.01023292 1605